Location: Unspecified
(0.0000°N, 0.0000°E)
Time: 11:24:40
(UTC+00:00)

SR - Pass Details

Date: 27 November 2019
Orbit: 573 x 882 km, 66.7° (Epoch: 07 December)

Event Time Altitude Azimuth Distance (km) Brightness Sun altitude
Rises 10:22:19 0° 175° (S) 2,912 ? 60.4°
Reaches altitude 10° 10:24:56 10° 160° (SSE) 2,050 ? 60.8°
Maximum altitude 10:28:34 23° 108° (ESE) 1,451 ? 61.4°
Drops below altitude 10° 10:32:25 10° 57° (ENE) 2,196 ? 62.0°
Sets 10:35:19 0° 43° (NE) 3,176 ? 62.5°
